Hourly Data Report for October 06, 2017

All times are specified in Local Standard Time (LST). Add 1 hour to adjust for Daylight Saving Time where and when it is observed.

BAS CARAQUET
NEW BRUNSWICK

47°48'08.000" N
64°50'00.000" W
5.00 m
8100467
71598
WXS

Download Data

Hourly Data (October 2017)
Hourly Data Report for October 6, 2017
Temp Definition
°C
Dew Point Temp Definition
°C
Rel Hum Definition
%
Wind Dir Definition
10's deg

Wind Spd Definition
km/h
Visibility Definition
km
Stn Press Definition
kPa
Hmdx Definition


Wind Chill Definition


Weather Definition


TIME
00:00 11.0 8.2 83 24 10   100.90     LegendNANA
01:00 12.1 8.2 77 24 10   100.96     LegendNANA
02:00 11.7 7.3 75 25 12   100.95     LegendNANA
03:00 10.6 6.8 78 25 10   100.97     LegendNANA
04:00 10.3 6.7 79 25 10   101.02     LegendNANA
05:00 9.8 6.3 79 25 11   101.10     LegendNANA
06:00 9.3 6.3 82 26 11   101.18     LegendNANA
07:00 9.7 6.7 82 26 14   101.24     LegendNANA
08:00 10.5 6.7 78 26 11   101.32     LegendNANA
09:00 12.4 7.3 71 27 13   101.39     LegendNANA
10:00 12.2 5.6 64 27 17   101.38     LegendNANA
11:00 13.2 5.7 60 28 15   101.36     LegendNANA
12:00 14.1 6.5 60 28 18   101.35     LegendNANA
13:00 13.2 4.7 56 27 18   101.32     LegendNANA
14:00 14.9 6.2 56 26 13   101.29     LegendNANA
15:00 14.0 4.6 53 28 15   101.29     LegendNANA
16:00 14.1 4.2 52 27 13   101.31     LegendNANA
17:00 12.6 4.0 56 25 9   101.28     LegendNANA
18:00 10.2 4.7 69 23 7   101.40     LegendNANA
19:00 8.3 4.5 77 20 6   101.44     LegendNANA
20:00 8.7 4.6 75 22 7   101.51     LegendNANA
21:00 8.5 4.4 75 23 6   101.58     LegendNANA
22:00 7.5 4.0 78 22 8   101.65     LegendNANA
23:00 7.6 3.9 77 24 8   101.73     LegendNANA

Notes on Data Quality.

Legend

  • E = Estimated
  • M = Missing
  • NA = Not Available
  • ‡ = Partner data that is not subject to review by the National Climate Archives
Date modified: